Regional Weather Roundup
Issued by NWS

Home | Current Version | Previous Version | Text Only | Print | Product List | Glossary Off
Versions: 1 2 3 4 5 6 7 8 9 10 11 12 13 14 15 16 17 18 19 20 21 22 23 24 25 26 27

000
ASUS45 KTFX 220710
RWRMT
MONTANA REGIONAL WEATHER ROUNDUP
NATIONAL WEATHER SERVICE GREAT FALLS MT
100 AM MDT SUN OCT 22 2017

NOTE: "FAIR" INDICATES FEW OR NO CLOUDS BELOW 12000 FEET WITH NO
SIGNIFICANT WEATHER AND/OR OBSTRUCTIONS TO VISIBILITY.

MTZ001>007-043-220800-
WEST OF THE DIVIDE

CITY           SKY/WX    TMP DP  RH WIND       PRES   REMARKS
KALISPELL      LGT RAIN  40  39  97 S10       29.81F
MISSOULA       CLOUDY    43  37  79 SE16      29.91F
BUTTE          CLOUDY    40  28  62 CALM      29.99F
MULLAN PASS    SNOW      32  29  88 S12G22    29.79F VSB 1/4 WCI  23
ANACONDA         N/A     41  28  60 S21G31    29.94S
DEER LODGE       N/A     43  28  56 S14G29    29.92F
EUREKA           N/A     37  36  93 MISG      29.76F
HAMILTON         N/A     43  36  75 S14       29.95F
LIBBY            N/A     37  37 100 SW5       29.75F
$$

MTZ008-052>055-220800-
SOUTHWEST MONTANA

CITY           SKY/WX    TMP DP  RH WIND       PRES   REMARKS
BOZEMAN        CLOUDY    43  27  53 SE6       29.97F
DILLON         CLOUDY    38  25  59 S8        30.04F
W YELLOWSTONE  CLOUDY    30  28  93 SW14G23   30.17F FOG     WCI  20
ENNIS          CLOUDY    41  27  56 S22G28    30.10S
THREE FORKS      N/A     45  26  47 SW9       29.95F
$$

MTZ009-010-012-014-046-048-049-054-220800-
EAST SLOPES AND CENTRAL MONTANA

CITY           SKY/WX    TMP DP  RH WIND       PRES   REMARKS
CUT BANK       CLOUDY    43  28  55 SW10      29.68F
GREAT FALLS    CLOUDY    46  27  47 S22G30    29.77F
MALMSTROM AFB  CLOUDY    47  28  47 SW29G38   29.76F
HELENA         CLEAR     46  29  51 SE3       29.86F
BOWMANS CRNR     N/A     40  30  67 S26G41    29.73F
CHOTEAU          N/A     43  30  61 S21G29    29.72F
FAIRFIELD        N/A     42  29  59 S29G35    29.72F
POWER            N/A     43  29  57 S22G32    29.72F
RAYNESFORD     MOCLDY    49  27  42 SW25G33   29.77F
ULM            MOCLDY    46  30  52 SW18      29.78F
$$

MTZ011-013-016-021-045-047-050-051-220800-
NORTH CENTRAL MONTANA

CITY           SKY/WX    TMP DP  RH WIND       PRES   REMARKS
HAVRE          PTCLDY    35  27  72 W5        29.74F
LEWISTOWN      CLOUDY    43  25  49 SW20      29.80F
N BAR RANCH      N/A     32  18  55 NW5       29.84F
CHINOOK          N/A     34  27  75 E3        29.76F
DENTON           N/A     36  20  53 MISG      29.75F
GEYSER         MOCLDY    46  26  45 W17       29.75F
GRASS RANGE    MOCLDY    38  22  51 S5        29.78F
JUDITH GAP     CLOUDY    43  25  49 SW25G35   29.84F
WINIFRED         N/A     42  24  49 SW7       29.78F
$$

MTZ017>020-022>027-061-062-220800-
NORTHEAST MONTANA

CITY           SKY/WX    TMP DP  RH WIND       PRES   REMARKS
GLASGOW        CLEAR     34  23  64 W7        29.81S WCI  28
JORDAN           N/A     30  21  69 NW7       29.85S WCI  23
SIDNEY         CLEAR     41  25  53 W12       29.83S
WOLF POINT     CLEAR     29  23  78 SW6       29.83S WCI  23
MALTA          CLEAR     27  23  86 CALM      29.80F
PLENTYWOOD       N/A     36  25  64 CALM      29.78S
POPLAR           N/A     32  25  74 W7        29.83R WCI  26
$$

MTZ028>42-056>058-220800-
SOUTHCENTRAL AND SOUTHEAST MONTANA

CITY           SKY/WX    TMP DP  RH WIND       PRES   REMARKS
BAKER          CLEAR     39  22  50 SW14      29.90R WCI  31
BILLINGS       CLOUDY    43  20  39 SW10      29.89F
LIVINGSTON     CLOUDY    48  25  40 SW32G48   29.92F
MILES CITY     CLEAR     32  25  75 S5        29.89F
BIG TIMBER     CLEAR     46  25  42 W33G47    29.87F
FORSYTH          N/A     43  18  36 CALM      29.89F
HARLOWTON      MOCLDY    42  26  52 W14       29.85F
LAUREL           N/A     39  19  45 SW12      29.90F WCI  32
$$

REGIONAL REPORTS...DAKOTAS

CITY           SKY/WX    TMP DP  RH WIND       PRES   REMARKS
WILLISTON      CLEAR     35  25  66 SW3       29.81R
MINOT          CLEAR     40  30  67 SW12      29.75R
DICKINSON      CLEAR     36  23  59 W12       29.84R WCI  28
BEACH            N/A     36  21  55 SW12      29.89S WCI  27
CROSBY           N/A     36  27  69 W12       29.76R WCI  27
TIOGA            N/A     34  28  80 W9        29.78S WCI  26
BISMARCK       PTCLDY    38  29  70 CALM      29.84R
GRAND FORKS    CLOUDY    49  38  65 W15G25    29.70R
FARGO          PTCLDY    48  38  68 W15       29.77R
BUFFALO SD       N/A     34  21  59 W8        29.86S WCI  27
RAPID CITY     CLEAR     33  17  51 W8        29.98R WCI  26
$$

REGIONAL REPORTS...WYOMING/IDAHO/WASHINGTON

CITY           SKY/WX    TMP DP  RH WIND       PRES   REMARKS
GILLETTE       CLEAR     36  15  42 SW10      29.97S WCI  28
SHERIDAN       CLEAR     32  18  56 SE3       29.94S
BUFFALO WY     CLEAR     34  11  38 W8        29.98R WCI  27
CODY           CLOUDY    44  24  45 SW28G41   29.99F
YELLOWSTONE LA   N/A     27  24  89 MISG      30.18F
IDAHO FALLS    CLOUDY    39  37  92 S23G29    30.25F WCI  28
SALMON         LGT RAIN  44  34  67 S21       30.10S
BOISE          CLOUDY    47  39  74 SE16G29   30.18S
SPOKANE        LGT RAIN  47  45  93 S21G30    29.71F
$$

REGIONAL REPORTS...ALBERTA

CITY           SKY/WX    TMP DP  RH WIND       PRES   REMARKS
EDMONTON       CLEAR     28  23  80 E5        29.46F
CALGARY        MOCLDY    39  23  52 CALM      29.48F
LETHBRIDGE     CLOUDY    37  28  70 S3        29.60F
MEDICINE HAT   CLOUDY    43  28  56 S14G21    29.64F
$$

REGIONAL REPORTS...SASKATCHEWAN

CITY           SKY/WX    TMP DP  RH WIND       PRES   REMARKS
SWIFT CURRENT  CLEAR     30  23  74 SW12      29.68F WCI  21
REGINA         CLEAR     27  25  93 W3        29.71R
SASKATOON      CLEAR     27  25  93 SW6       29.66F WCI  20
$$




USA.gov is the U.S. government's official web portal to all federal, state and local government web resources and services.